www.pogodaiklimat.ru

Погода и климат >> Архив погоды >> Антарктида >> Mawson


ПОГОДА в Mawson

  • Прогноз погоды в Mawson
  • Монитор погоды в Mawson
  • Климат города

АРХИВ ПОГОДЫ в Mawson

Время (UTC), дата Ветер
(напр.,м/с)
 
Видим.   Явления Облачность Т
(С)
Тd
(С)
f
(%)
Тe
(С)
Тes
(С)
Комфортность P
(гПа)
Po
(гПа)
Тmin
(С)
Tmax
(С)
R
(мм)
R24
(мм)
S
(см)
00 16.10 Ю 14 н/о н/о -19.2 -29.9 38 -34 -34 опасность
обморожения
987.1 985.0
03 16.10 Ю 15 30 км позёмок 1/1 600 м
[Sc]
-18.4 -27.4 45 -34 -34 опасность
обморожения
986.2 984.1 -20.0
06 16.10 ЮВ 7 40 км 1/0
[Ac trans Ci sp]
-14.7 -24.7 42 -25 -24 986.1 984.0
09 16.10 СВ 6 40 км ясно -15.9 -26.3 40 -25 -23 986.4 984.3
12 16.10 З 4 40 км ясно -14.6 -21.8 54 -22 -20 987.1 985.0
15 16.10 Ю 12 н/о н/о -14.8 -27.8 32 -28 -28 986.6 984.5 -12.7
18 16.10 ЮВ 18 н/о н/о -17.4 -25.7 48 -33 -33 опасность
обморожения
985.7 983.6
21 16.10 Ю 13 н/о н/о -17.2 -27.0 42 -31 -31 опасность
обморожения
987.3 985.2
00 17.10 Ю 5 н/о н/о -15.9 -27.8 35 -25 -25 986.7 984.6
03 17.10 ЮЗ 3 40 км 1/0
[Ac trans]
-15.5 -27.7 34 -22 -20 986.0 983.9 -20.1
06 17.10 СЗ 4 40 км ясно -13.4 -25.9 34 -20 -16 984.7 982.6
09 17.10 СЗ 2 40 км ясно -12.0 -25.6 31 -17 -10 983.7 981.6
12 17.10 З 5 40 км ясно -10.8 -21.4 41 -18 -17 981.6 979.5
15 17.10 ЮВ 5 н/о н/о -13.4 -23.5 42 -21 -21 980.1 978.0 -10.7
18 17.10 Ю 16 н/о н/о -16.1 -24.1 50 -31 -31 опасность
обморожения
978.3 976.2
21 17.10 Ю 15 н/о н/о -15.6 -23.8 49 -30 -30 977.1 975.1
00 18.10 Ю 15 н/о н/о -16.2 -25.1 46 -31 -31 опасность
обморожения
976.8 974.8
03 18.10 ЮВ 14 40 км 1/0
[Ac trans Ci sp]
-11.7 -23.1 38 -24 -24 976.9 974.9 -17.4
06 18.10 ЮВ 15 30 км 6/0
[Ac trans Ci sp]
-8.5 -19.1 42 -20 -20 976.7 974.7
09 18.10 В 10 25 км 9/0
[Ac As Ci sp]
-6.8 -13.0 61 -17 -17 976.8 974.8
12 18.10 ЮВ 19 20 км позёмок {метель} 10/0 2000 м
[Ac trans Cs]
-6.8 -12.4 64 -19 -19 975.7 973.7
15 18.10 ЮВ 23 н/о н/о -6.3 -15.7 47 -19 -19 974.7 972.7 -6.4
18 18.10 ЮВ 22 н/о н/о -5.2 -17.3 38 -17 -17 975.6 973.6
21 18.10 ЮВ 24 н/о н/о -6.3 -18.6 37 -19 -19 975.4 973.4
00 19.10 ЮВ 25 н/о н/о -6.7 -18.9 37 -20 -20 975.1 973.1
03 19.10 ЮВ 22 35 км осадки на расстоянии 9/0
[Ac As Cs]
-7.7 -20.8 34 -21 -21 976.6 974.6 -16.4
06 19.10 ЮВ 21 35 км 9/3 1500 м
[Sc Ac As Cs]
-7.6 -20.7 34 -20 -20 977.8 975.8
09 19.10 ЮВ 21 35 км 9/5 1500 м
[Sc Ac As]
-8.0 -21.1 34 -21 -21 978.1 976.1
12 19.10 ЮВ 19 40 км 8/0
[Ac trans]
-8.4 -19.5 40 -21 -21 978.6 976.5
15 19.10 ЮВ 19 н/о н/о -9.8 -21.7 37 -23 -23 978.3 976.2 -4.6
18 19.10 ЮВ 18 н/о н/о -11.4 -24.8 32 -25 -25 979.0 976.9
21 19.10 ЮВ 17 н/о н/о -12.4 -25.0 34 -26 -26 980.6 978.5
00 20.10 ЮВ 14 н/о н/о -13.0 -24.6 37 -26 -26 982.2 980.1
03 20.10 Ю 14 н/о н/о -11.9 -24.5 34 -25 -25 983.3 981.2 -13.8
06 20.10 ЮВ 17 40 км 1/1 1500 м
[Sc Ac trans Ci sp]
-9.3 -20.9 38 -22 -22 984.3 982.2
09 20.10 ЮВ 13 н/о н/о -8.5 -19.1 42 -20 -20 986.0 983.9
12 20.10 СВ 5 40 км осадки на расстоянии 9/1 1500 м
[Sc Ac trans]
-8.7 -16.5 53 -16 -15 988.3 986.2
15 20.10 ЮВ 8 н/о н/о -10.4 -18.3 52 -20 -20 989.1 987.0 -7.9
18 20.10 ЮВ 12 н/о н/о -12.5 -24.4 36 -25 -25 989.7 987.6
21 20.10 ЮВ 10 н/о н/о -13.4 -23.3 43 -25 -25 991.0 988.9
00 21.10 ЮВ 14 н/о н/о -11.7 -23.4 37 -24 -24 991.7 989.6
03 21.10 ЮВ 11 40 км 1/1 1000 м
[St]
-10.0 -21.0 40 -21 -21 992.5 990.4 -14.5
06 21.10 ЮВ 8 40 км 1/1 1500 м
[Sc Ac trans]
-8.2 -18.0 45 -17 -16 993.2 991.1
09 21.10 З 4 40 км 4/0
[Ac trans]
-6.9 -16.8 45 -13 -10 994.1 992.0
12 21.10 ЮВ 7 40 км 4/4 1500 м
[Sc]
-6.3 -15.5 48 -14 -14 994.6 992.5
15 21.10 ЮВ 8 н/о н/о -8.0 -17.8 45 -17 -17 994.7 992.6 -5.8
18 21.10 Ю 13 н/о н/о -11.1 -21.4 42 -23 -23 995.2 993.1
21 21.10 Ю 14 н/о н/о -11.6 -22.4 40 -24 -24 994.9 992.8
00 22.10 Ю 13 н/о н/о -11.4 -22.0 41 -24 -24 994.7 992.6
03 22.10 Ю 9 40 км ясно -8.6 -21.3 35 -18 -18 995.8 993.7 -13.2
06 22.10 ЮВ 15 40 км ясно -7.4 -18.6 40 -19 -19 996.2 994.1
09 22.10 В 8 40 км ясно -6.4 -18.6 37 -15 -14 997.3 995.2
12 22.10 СВ 4 40 км 1/0
[Ci fib]
-7.2 -17.3 44 -13 -11 997.4 995.3
15 22.10 ЮВ 4 н/о н/о -9.7 -15.6 62 -17 -17 997.3 995.2 -6.0
18 22.10 ЮВ 10 н/о н/о -11.3 -23.0 37 -22 -22 996.3 994.2

 

Местоположение метеостанции Mawson (Антарктида): широта -67.60 долгота 62.87 высота над уровнем моря 16 м.

В архиве по умолчанию представлена погода в Mawson за последнюю неделю. Архивные данные за месяц целиком и за предыдущие месяцы, начиная с января 2011 года, Вы можете получить, выбрав интересующий диапазон дат из раскрывающегося списка и нажав кнопку "Ввод!".

Внимание! Время в таблицах - всемирное. Для получения местного времени необходимо прибавить поправку, которая в Mawson равна 0 ч.

Смотрите также архив погоды в соседних городах и на ближайших метеорологических станциях:

Погода в Amery (Антарктида) (459 км)
Погода в Druzhnaya-4 (Антарктида) (497 км)
Погода в Bharati (Антарктида) (578 км)
Погода в Zhongshan (Антарктида) (583 км)
Погода в Progress (Антарктида) (584 км)
Погода в Davis (Антарктида) (634 км)
Погода в Davis (Whoop Whoop) (Антарктида) (669 км)
Погода в Molodezhnaya (Антарктида) (718 км)
Погода в Relay Station (Антарктида) (1007 км)
Погода в Dome Plateau Eagle (Антарктида) (1087 км)

Пояснения к столбцам:

Ветер - указаны скорость ветра в м/с - средняя за 10 мин, порывы в срок и между сроками (в фигурных скобках) и направление, откуда дует ветер: С - северный, СВ - северо-восточный, В - восточный, ЮВ - юго-восточный, Ю - южный, ЮЗ - юго-западный, З - западный, СЗ - северо-западный.
Видимость - горизонтальная дальность видимости в метрах или километрах. При видимости от 1 до 10 км при отсутствии осадков обычно наблюдается дымка, при ухудшении видимости до 1 км и менее - туман. В сухую погоду видимость может ухудшаться дымом, пылью или мглою.
Явления - указаны атмосферные явления, наблюдавшиеся в срок или в последний час перед сроком; фигурными скобками обозначены явления, наблюдавшиеся между сроками (за 1-3 часа до срока); квадратными скобками обозначены град или гололедные отложения с указанием их диаметра в мм.
Облачность - указаны через наклонную черту общая и нижняя облачность в баллах и высота нижней границы облаков в метрах; квадратными скобками обозначены формы облаков: Ci - перистые, Cs - перисто-слоистые, Cc - перисто-кучевые, Ac - высококучевые, As - высокослоистые, Sc - слоисто-кучевые, Ns - слоисто-дождевые, Cu - кучевые, Cb - кучево-дождевые. Подробнее классификацию облаков см. в Атласе облаков (PDF).
T - Температура воздуха - температура, измеренная на высоте 2 м над землей.
Td - Температура точки росы - температура, при понижении до которой содержащийся в воздухе водяной пар достигнет насыщения.
f - Относительная влажность воздуха - влажноcть воздуха, измеренная на высоте 2 м над землей.
Te - Эффективная температура - температура, которую ощущает одетый по сезону человек в тени. Характеристика душности погоды. При расчете учитывается влияние влажности воздуха и скорости ветра на теплоощущения человека.
Tes - Эффективная температура на солнце - температура, которую ощущает человек, с поправкой на солнечный нагрев. Характеристика знойности погоды. Зависит от высоты солнца над горизонтом, облачности и скорости ветра. Ночью, в пасмурную погоду, а также при ветре 12 м/с и более поправка равна нулю.
P - Атмосферное давление - приведенное к уровню моря атмосферное давление.
Po - Атмосферное давление - измеренное на уровне метеостанции атмосферное давление.
Tmin - Минимальная температура - минимум температуры воздуха на высоте 2 м над землей.
Tmax - Максимальная температура - максимум температуры воздуха на высоте 2 м над землей.
R - Количество осадков - Количество выпавших осадков за период времени, мм. При наведении курсора мыши на число - период времени, за который выпало указанное количество осадков.
R24 - Количество осадков - Количество выпавших осадков за 24 часа, мм.
S - Снежный покров - Высота снежного покрова, см. При наведении курсора мыши на число - состояние снежного покрова и степень покрытия местности в баллах.